Overview Statistics Trail Chart Weather Telemetry Raw packets
 

This is the latest recevied weather packets stored in our database for station/object VK4TW-13. If no packets are shown the sender has not sent any weather packets the latest 10 day(s).

<< 1 2 3 4 >>
Time Temp. Humidity Pressure Rain* Wind** Luminosity Snow
1788675959 27.78° C 100% 1013.8 hPa 0 mm - - -
1788675357 28.33° C 100% 1013.8 hPa 0 mm - - -
1788674757 28.33° C 100% 1014 hPa 0 mm - - -
1788674156 27.78° C 100% 1013.9 hPa 0 mm - - -
1788673577 27.78° C 100% 1013.9 hPa 0 mm - - -
1788672954 27.22° C 100% 1014 hPa 0 mm - - -
1788672353 27.22° C 100% 1014.1 hPa 0 mm - - -
1788671752 27.22° C 100% 1014.2 hPa 0 mm - - -
1788671151 27.22° C 100% 1014.2 hPa 0 mm - - -
1788670550 27.22° C 100% 1014.3 hPa 0 mm - - -
1788669950 27.78° C 100% 1014.4 hPa 0 mm - - -
1788669348 28.33° C 100% 1014.4 hPa 0 mm - - -
1788668747 28.33° C 100% 1014.5 hPa 0 mm - - -
1788668146 28.89° C 100% 1014.6 hPa 0 mm - - -
1788667545 28.89° C 100% 1014.7 hPa 0 mm - - -
1788666945 28.89° C 100% 1014.8 hPa 0 mm - - -
1788666344 29.44° C 100% 1015.1 hPa 0 mm - - -
1788665743 29.44° C 100% 1015.3 hPa 0 mm - - -
1788665166 29.44° C 100% 1015.3 hPa 0 mm - - -
1788664602 30° C 100% 1015.6 hPa 0 mm - - -
1788664001 30° C 100% 1015.8 hPa 0 mm - - -
1788663400 29.44° C 100% 1016 hPa 0 mm - - -
1788662799 30° C 100% 1016.1 hPa 0 mm - - -
1788662198 30° C 100% 1016.4 hPa 0 mm - - -
1788661597 30° C 100% 1016.5 hPa 0 mm - - -

* Rain since midnight (hover to see other rain measurements)
** Current wind speed in m/s (hover to see current wind gust speed)